Middletown, PA

5:38 AM EDT on October 17, 2017 (GMT -0400)
Harrisburg International

Weather History for KMDT - January, 2014

Change the Weather History Date:

Friday, January 3, 2014

  Actual Average Record
Temperature  
Mean Temperature 15 °F 31 °F  
Max Temperature 23 °F 38 °F 60 °F (1950)
Min Temperature 6 °F 24 °F 4 °F (1918)
Degree Days  
Heating Degree Days 50 34  
Month to date heating degree days 126 102  
Since 1 July heating degree days 2127 2103  
Cooling Degree Days 0 0  
Month to date cooling degree days 0 0  
Year to date cooling degree days 0 0  
Moisture  
Dew Point 3 °F    
Average Humidity 62    
Maximum Humidity 84    
Minimum Humidity 39    
Precipitation  
Precipitation 0.03 in 0.09 in 1.68 in (1944)
Month to date precipitation 0.35 0.27  
Year to date precipitation 0.35 0.27  
Snow  
Snow 0.70 in 0.20 in 8.20 in (1919)
Month to date snowfall 5.5 0.6  
Since 1 July snowfall 14.7 6.3  
Snow Depth 4.00 in    
Sea Level Pressure  
Sea Level Pressure 30.11 in    
Wind  
Wind Speed 14 mph (NNW)    
Max Wind Speed 29 mph    
Max Gust Speed 37 mph    
Visibility 7 miles    
Events Snow    
T = Trace of Precipitation, MM = Missing Value Source: NWS Daily Summary

Daily Weather History Graph

Daily Weather History Graph

Search for Another Location

Airport or City:

Trip Planner

Search our weather history database for the weather conditions in past years. The results will help you decide how hot, cold, wet, or windy it might be!

Date:

Astronomy

Jan. 03, 2014 Rise Set
Actual Time 7:29 AM EST 4:53 PM EST
Civil Twilight 6:59 AM EST 5:24 PM EST
Nautical Twilight 6:25 AM EST 5:58 PM EST
Astronomical Twilight 5:52 AM EST 6:31 PM EST
Moon 8:54 AM EST (1/3) 8:00 PM EST (1/3)
Length of Visible Light 10h 24m
Length of Day
9h 24m
Waxing Crescent, 8% of the Moon is Illuminated
Jan 3
Waxing Crescent
Jan 7
First Quarter
Jan 15
Full
Jan 24
Last Quarter
Jan 30
New

Hourly Weather History & Observations

Time (EST) Temp. Windchill Dew Point Humidity Pressure Visibility Wind Dir Wind Speed Gust Speed Precip Events Conditions
12:44 AM 21.2 °F 8.3 °F 15.8 °F 80% 29.69 in 4.0 mi NNW 13.8 mph 21.9 mph 0.02 in Snow Light Snow
12:56 AM 21.0 °F 7.1 °F 15.1 °F 78% 29.72 in 2.0 mi NNW 16.1 mph 23.0 mph 0.02 in Snow Light Snow
1:09 AM 19.4 °F 7.2 °F 15.8 °F 86% 29.71 in 1.0 mi NNW 11.5 mph - 0.00 in Snow Light Snow
1:44 AM 17.6 °F 5.7 °F 12.2 °F 79% 29.74 in 2.0 mi NNW 10.4 mph 19.6 mph 0.01 in Snow Light Snow
1:56 AM 18.0 °F 4.8 °F 12.9 °F 81% 29.77 in 2.0 mi NW 12.7 mph - 0.01 in Snow Light Snow
2:52 AM 15.8 °F -0.6 °F 8.6 °F 73% 29.80 in 6.0 mi NNW 18.4 mph 27.6 mph 0.00 in Snow Light Snow
2:56 AM 16.0 °F -0.4 °F 9.0 °F 74% 29.82 in 6.0 mi NW 18.4 mph 27.6 mph 0.00 in Snow Light Snow
3:33 AM 15.8 °F -1.9 °F 8.6 °F 73% 29.82 in 2.5 mi NW 21.9 mph 31.1 mph 0.00 in Snow Blowing Snow
3:43 AM 15.8 °F -3.4 °F 6.8 °F 68% 29.82 in 2.5 mi NNW 26.5 mph 35.7 mph 0.00 in Snow Blowing Snow
3:56 AM 14.0 °F -3.4 °F 6.1 °F 71% 29.86 in 4.0 mi NNW 19.6 mph 35.7 mph 0.00 in Snow Blowing Snow
4:19 AM 14.0 °F -3.9 °F 5.0 °F 67% 29.86 in 3.0 mi NNW 20.7 mph 29.9 mph N/A Snow Blowing Snow
4:56 AM 12.9 °F -4.4 °F 3.9 °F 67% 29.91 in 7.0 mi NNW 18.4 mph 34.5 mph N/A Snow Blowing Snow
5:56 AM 12.9 °F -3.4 °F 3.0 °F 65% 29.99 in 8.0 mi NNW 16.1 mph 24.2 mph N/A   Mostly Cloudy
6:56 AM 12.0 °F -6.5 °F -0.0 °F 59% 30.06 in 9.0 mi NNW 20.7 mph 29.9 mph N/A   Scattered Clouds
7:56 AM 10.0 °F -7.6 °F -0.9 °F 61% 30.13 in 8.0 mi NNW 17.3 mph 28.8 mph N/A   Partly Cloudy
8:56 AM 10.9 °F -8.3 °F -0.0 °F 61% 30.18 in 7.0 mi NNW 21.9 mph 29.9 mph N/A   Scattered Clouds
9:56 AM 12.0 °F -6.5 °F -0.0 °F 59% 30.22 in 5.0 mi NNW 20.7 mph 35.7 mph N/A Snow Blowing Snow
10:56 AM 12.9 °F -4.4 °F -0.9 °F 54% 30.25 in 10.0 mi NW 18.4 mph 29.9 mph N/A   Partly Cloudy
11:56 AM 14.0 °F -3.0 °F -2.0 °F 49% 30.27 in 10.0 mi NW 18.4 mph - N/A   Clear
12:56 PM 15.1 °F -2.9 °F -2.0 °F 47% 30.27 in 9.0 mi NNW 21.9 mph 27.6 mph N/A   Clear
1:56 PM 17.1 °F 0.6 °F -2.0 °F 43% 30.28 in 10.0 mi NNW 19.6 mph 26.5 mph N/A   Clear
2:56 PM 18.0 °F 4.2 °F -4.0 °F 38% 30.32 in 10.0 mi NNW 13.8 mph - N/A   Clear
3:56 PM 18.0 °F 4.8 °F -4.0 °F 38% 30.35 in 10.0 mi NW 12.7 mph - N/A   Clear
4:56 PM 18.0 °F 6.1 °F -2.9 °F 40% 30.38 in 10.0 mi NW 10.4 mph - N/A   Clear
5:56 PM 17.1 °F 5.0 °F -0.9 °F 45% 30.41 in 10.0 mi WNW 10.4 mph - N/A   Clear
6:56 PM 17.1 °F 6.6 °F -0.9 °F 45% 30.45 in 10.0 mi West 8.1 mph - N/A   Clear
7:56 PM 15.1 °F 6.4 °F -0.9 °F 49% 30.48 in 10.0 mi Variable 5.8 mph - N/A   Clear
8:56 PM 14.0 °F 3.9 °F -2.0 °F 49% 30.48 in 10.0 mi WNW 6.9 mph - N/A   Clear
9:56 PM 14.0 °F 5.1 °F -2.0 °F 49% 30.48 in 10.0 mi NNW 5.8 mph - N/A   Clear
10:56 PM 12.0 °F 4.1 °F -2.0 °F 53% 30.48 in 10.0 mi NNW 4.6 mph - N/A   Clear
11:56 PM 7.0 °F 0.1 °F -0.9 °F 70% 30.48 in 10.0 mi East 3.5 mph - N/A   Clear